Terminal Aerodrome Forecast
Issued by NWS Rapid City, SD

Home | Current Version | Previous Version | Graphics & Text | Print | Product List | Glossary On
Versions: 1 2 3 4 5 6 7 8 9 10 11 12 13 14 15 16 17 18 19
000
FTUS43 KUNR 131738
TAFRAP
TAF
KRAP 131738Z 1318/1418 32027G38KT P6SM SCT150
     FM140100 30015KT P6SM BKN080=

USA.gov is the U.S. government's official web portal to all federal, state and local government web resources and services.